Voltar ao catálogo

STARLINK-37833

AtivoComunicaçõesSSO
NORAD 69332·PAYLOAD·🇺🇸 United States

Lançado Jun 3, 2026 de Vandenberg Space Force Base

Loading…

Próximas Passagens (próximas 24 horas)

TLE

AtualizadoSource: CelesTrak SupGP

Época: Sep 15, 2026, 04:13 UTC

1 69332C 26122D   26258.17618056 -.00060105  00000+0 -18661-2 0  2588
2 69332  97.2824 286.8158 0001015 102.7420 112.6520 15.33464708    17

Acompanhe STARLINK-37833 em tempo real com AllMySat

Download on the App Store